Simultaneous Nadir Overpasses (SNOs) Predictions

Prediction of SNOs between GOES-15 and TERRA Satellite Orbit:

Table of predicted SNOs for the next 14.0 days since TLE Epoch: 5/17/2014
Index Date Time (GOES-15) GOES-15 Lat,Lon TERRA Lat,Lon Distance(km) Time Diff (sec)
1 05/18/2014 07:10:22 0.06,-134.80 0.96,-130.52 487.08 80
2 05/18/2014 19:31:38 -0.06,-134.79 0.12,-135.68 101.30 80
3 05/20/2014 19:22:08 -0.07,-134.70 -0.51,-132.73 224.39 80
4 05/21/2014 07:43:32 0.06,-134.67 -0.63,-137.91 368.91 80
5 05/23/2014 07:31:21 0.07,-134.57 -0.03,-134.95 43.52 80
6 05/25/2014 07:16:30 0.07,-134.48 0.58,-132.00 281.76 80
7 05/25/2014 19:37:46 -0.06,-134.45 0.49,-137.16 307.25 80
8 05/27/2014 19:28:14 -0.06,-134.35 -0.08,-134.19 17.60 80
9 05/29/2014 19:16:03
